Big Delta, AK

11:55 PM AKST on December 13, 2017 (GMT -0900)
Allen Army Air Field

Weather History for PABI - November, 2012

Change the Weather History Date:

Wednesday, November 14, 2012

  Actual Average Record
Temperature  
Mean Temperature 4 °F -  
Max Temperature 7 °F 16 °F 41 °F (2000)
Min Temperature 0 °F 5 °F -29 °F (2006)
Degree Days  
Heating Degree Days 62    
Moisture  
Dew Point 0 °F    
Average Humidity 75    
Maximum Humidity 84    
Minimum Humidity 61    
Precipitation  
Precipitation 0.04 in - - ()
Sea Level Pressure  
Sea Level Pressure 29.66 in    
Wind  
Wind Speed 20 mph (ESE)    
Max Wind Speed 25 mph    
Max Gust Speed 33 mph    
Visibility 4 miles    
Events Snow    
Averages and records for this station are not official NWS values.
T = Trace of Precipitation, MM = Missing Value Source: NWS Daily Summary

Daily Weather History Graph

Daily Weather History Graph

Search for Another Location

Airport or City:

Trip Planner

Search our weather history database for the weather conditions in past years. The results will help you decide how hot, cold, wet, or windy it might be!

Date:

Astronomy

Nov. 14, 2012 Rise Set
Actual Time 9:09 AM AKST 3:44 PM AKST
Civil Twilight 8:09 AM AKST 4:44 PM AKST
Nautical Twilight 7:09 AM AKST 5:44 PM AKST
Astronomical Twilight 6:13 AM AKST 6:40 PM AKST
Moon 10:40 AM AKST 4:09 PM AKST
Length of Visible Light 8h 34m
Length of Day
6h 35m
New Moon, 1% of the Moon is Illuminated
Nov 14
New Moon
Nov 20
First Quarter
Nov 28
Full
Dec 6
Last Quarter
Dec 12
New

Hourly Weather History & Observations

Time (AKST) Temp. Windchill Dew Point Humidity Pressure Visibility Wind Dir Wind Speed Gust Speed Precip Events Conditions
12:53 AM 3.9 °F -17.1 °F -2.9 °F 73% 29.86 in 10.0 mi ESE 20.7 mph 33.4 mph N/A   Clear
1:53 AM 3.9 °F -16.1 °F -2.9 °F 73% 29.84 in 10.0 mi ESE 18.4 mph 27.6 mph N/A   Clear
2:53 AM 3.9 °F -17.6 °F -2.9 °F 73% 29.82 in 10.0 mi ESE 21.9 mph 29.9 mph N/A   Clear
3:53 AM 3.9 °F -18.1 °F -2.9 °F 73% 29.80 in 10.0 mi ESE 23.0 mph 32.2 mph N/A   Mostly Cloudy
4:53 AM 5.0 °F -15.2 °F -2.0 °F 73% 29.78 in 10.0 mi ESE 19.6 mph 28.8 mph N/A   Overcast
5:53 AM 6.1 °F -13.8 °F -2.0 °F 69% 29.77 in 10.0 mi ESE 19.6 mph 26.5 mph N/A   Overcast
6:53 AM 6.1 °F -13.8 °F -2.0 °F 69% 29.75 in 10.0 mi East 19.6 mph 28.8 mph N/A   Overcast
7:53 AM 7.0 °F -13.6 °F -0.9 °F 70% 29.73 in 5.0 mi East 21.9 mph 31.1 mph 0.00 in Snow Light Snow
8:49 AM 6.8 °F -13.8 °F -0.4 °F 72% 29.58 in 2.5 mi ESE 21.9 mph 32.2 mph 0.00 in Snow Blowing Snow
8:53 AM 7.0 °F -14.9 °F -0.0 °F 73% 29.72 in 2.5 mi ESE 25.3 mph 32.2 mph 0.00 in Snow Blowing Snow
9:04 AM 6.8 °F -15.1 °F -0.4 °F 72% 29.57 in 3.0 mi East 25.3 mph 32.2 mph N/A Snow Blowing Snow
9:53 AM 7.0 °F -12.1 °F -0.0 °F 73% 29.71 in 4.0 mi East 18.4 mph 26.5 mph 0.00 in Snow Light Snow
10:23 AM 6.8 °F -13.4 °F -0.4 °F 72% 29.57 in 2.0 mi East 20.7 mph 26.5 mph 0.00 in Snow Light Snow
10:53 AM 7.0 °F -13.6 °F 1.0 °F 77% 29.71 in 2.5 mi East 21.9 mph 26.5 mph 0.00 in Snow Light Snow
11:25 AM 6.8 °F -11.8 °F 1.4 °F 79% 29.58 in 1.5 mi East 17.3 mph 25.3 mph 0.00 in Snow Light Snow
11:53 AM 6.1 °F -13.8 °F 1.0 °F 80% 29.71 in 1.2 mi East 19.6 mph 24.2 mph 0.00 in Snow Light Snow
12:53 PM 6.1 °F -14.3 °F -0.0 °F 76% 29.70 in 2.5 mi East 20.7 mph 28.8 mph 0.00 in Snow Light Snow
1:20 PM 6.8 °F -13.8 °F -0.4 °F 72% 29.55 in 1.8 mi East 21.9 mph 31.1 mph 0.00 in Snow Light Snow
1:53 PM 6.1 °F -14.8 °F -0.0 °F 76% 29.68 in 1.5 mi ESE 21.9 mph 29.9 mph 0.00 in Snow Light Snow
2:11 PM 6.8 °F -13.4 °F -0.4 °F 72% 29.54 in 3.0 mi East 20.7 mph 28.8 mph 0.00 in Snow Light Snow
2:53 PM 6.1 °F -14.8 °F -0.9 °F 73% 29.68 in 7.0 mi ESE 21.9 mph 29.9 mph 0.00 in Snow Light Snow
3:13 PM 6.8 °F -12.4 °F -0.4 °F 72% 29.53 in 2.5 mi East 18.4 mph 31.1 mph 0.00 in Snow Light Snow
3:31 PM 6.8 °F -13.8 °F 1.4 °F 79% 29.52 in 1.0 mi ESE 21.9 mph 28.8 mph 0.00 in Snow Light Snow
3:53 PM 6.1 °F -13.3 °F 1.0 °F 80% 29.66 in 1.2 mi East 18.4 mph 26.5 mph 0.00 in Snow Light Snow
4:01 PM 6.8 °F -13.8 °F 1.4 °F 79% 29.52 in 1.5 mi East 21.9 mph 27.6 mph 0.00 in Snow Light Snow
4:43 PM 6.8 °F -13.4 °F 1.4 °F 79% 29.52 in 2.5 mi ESE 20.7 mph 28.8 mph 0.01 in Snow Light Snow
4:53 PM 6.1 °F -13.8 °F 1.0 °F 80% 29.65 in 2.0 mi East 19.6 mph 29.9 mph 0.01 in Snow Light Snow
5:07 PM 6.8 °F -12.9 °F -0.4 °F 72% 29.51 in 5.0 mi East 19.6 mph 29.9 mph 0.00 in Snow Light Snow
5:46 PM 6.8 °F -12.4 °F 1.4 °F 79% 29.52 in 2.5 mi East 18.4 mph 26.5 mph 0.00 in Snow Light Snow
5:53 PM 6.1 °F -13.8 °F 1.0 °F 80% 29.65 in 3.0 mi East 19.6 mph 26.5 mph 0.00 in Snow Light Snow
6:53 PM 6.1 °F -14.3 °F -0.0 °F 76% 29.67 in 3.0 mi ESE 20.7 mph 27.6 mph 0.00 in Snow Light Snow
7:09 PM 6.8 °F -11.3 °F 1.4 °F 79% 29.54 in 2.5 mi ESE 16.1 mph 25.3 mph 0.00 in Snow Light Snow
7:32 PM 6.8 °F -12.4 °F 1.4 °F 79% 29.54 in 2.5 mi East 18.4 mph - 0.00 in Snow Light Snow
7:39 PM 6.8 °F -11.3 °F 1.4 °F 79% 29.54 in 3.0 mi East 16.1 mph 25.3 mph 0.00 in Snow Light Snow
7:53 PM 6.1 °F -12.2 °F 1.0 °F 80% 29.68 in 4.0 mi East 16.1 mph - 0.00 in Snow Light Snow
8:53 PM 6.1 °F -14.3 °F 1.0 °F 80% 29.70 in 3.0 mi East 20.7 mph 27.6 mph 0.00 in Snow Light Snow
9:53 PM 6.1 °F -11.6 °F 1.0 °F 80% 29.72 in 2.0 mi ESE 15.0 mph - 0.00 in Snow Light Snow
9:59 PM 6.8 °F -11.3 °F 1.4 °F 79% 29.58 in 1.8 mi East 16.1 mph - 0.00 in Snow Light Snow
10:16 PM 6.8 °F -9.3 °F 1.4 °F 79% 29.59 in 2.0 mi East 12.7 mph - 0.01 in Snow Light Snow
10:24 PM 6.8 °F -10.0 °F 1.4 °F 79% 29.59 in 4.0 mi East 13.8 mph - 0.01 in Snow Light Snow
10:53 PM 7.0 °F -9.8 °F 1.0 °F 77% 29.73 in 4.0 mi East 13.8 mph - 0.01 in Snow Light Snow
11:08 PM 6.8 °F -9.3 °F 1.4 °F 79% 29.61 in 2.5 mi East 12.7 mph - 0.00 in Snow Light Snow
11:20 PM 6.8 °F -8.6 °F 1.4 °F 79% 29.61 in 1.8 mi East 11.5 mph - 0.00 in Snow Light Snow
11:53 PM 7.0 °F -9.8 °F 3.0 °F 84% 29.75 in 1.5 mi East 13.8 mph - 0.01 in Snow Light Snow